Weather History for Savoonga, AK

Change the Weather History Date:

Wednesday, December 19, 2012

  Actual Average Record
Temperature  
Mean Temperature 8 °F -  
Max Temperature 17 °F 11 °F 37 °F (1998)
Min Temperature 0 °F 3 °F -16 °F (2001)
Degree Days  
Heating Degree Days 56    
Moisture  
Dew Point 5 °F    
Average Humidity 75    
Maximum Humidity 86    
Minimum Humidity 63    
Precipitation  
Precipitation 0.00 in - - ()
Sea Level Pressure  
Sea Level Pressure 30.36 in    
Wind  
Wind Speed 21 mph (SSW)    
Max Wind Speed 30 mph    
Max Gust Speed 40 mph    
Visibility 7 miles    
Events      
Averages and records for this station are not official NWS values.
T = Trace of Precipitation, MM = Missing Value Source: NWS Daily Summary

Daily Weather History Graph

Daily Weather History Graph

Search for Another Location

Airport:

Trip Planner

Search our weather history database for the weather conditions in past years. The results will help you decide how hot, cold, wet, or windy it might be!

Date:

Astronomy

Dec. 19, 2012 Rise Set
Actual Time 12:08 PM AKST 4:30 PM AKST
Civil Twilight 10:52 AM AKST 5:46 PM AKST
Nautical Twilight 9:45 AM AKST 6:53 PM AKST
Astronomical Twilight 8:46 AM AKST 7:52 PM AKST
Moon 1:44 PM AKST (12/19) 1:38 AM AKST (12/19)
Length of Visible Light 6h 54m
Length of Day
4h 22m
Waxing Crescent, 46% of the Moon is Illuminated
Dec 19
Waxing Crescent
Dec 19
First Quarter
Dec 28
Full
Jan 4
Last Quarter
Jan 11
New

Hourly Weather History & Observations

Time (AKST) Temp. Windchill Dew Point Humidity Pressure Visibility Wind Dir Wind Speed Gust Speed Precip Events Conditions
12:16 AM -0.4 °F -21.2 °F -5.8 °F 78% 30.27 in 10.0 mi WSW 17.3 mph - N/A   Clear
12:36 AM -0.4 °F -19.2 °F -4.0 °F 85% 30.27 in 10.0 mi WSW 13.8 mph - N/A   Clear
12:56 AM -0.4 °F -17.6 °F -5.8 °F 78% 30.27 in 10.0 mi WSW 11.5 mph - N/A   Clear
1:16 AM -0.4 °F -19.9 °F -5.8 °F 78% 30.27 in 10.0 mi WSW 15.0 mph - N/A   Clear
1:36 AM -0.4 °F -21.7 °F -5.8 °F 78% 30.27 in 10.0 mi WSW 18.4 mph - N/A   Clear
1:56 AM -0.4 °F -22.3 °F -7.6 °F 72% 30.28 in 10.0 mi WSW 19.6 mph - N/A   Clear
2:16 AM 1.4 °F -19.9 °F -5.8 °F 72% 30.29 in 10.0 mi WSW 19.6 mph - N/A   Clear
2:36 AM 3.2 °F -17.6 °F -0.4 °F 85% 30.29 in 10.0 mi WSW 19.6 mph - N/A   Clear
2:56 AM 3.2 °F -17.6 °F -0.4 °F 85% 30.30 in 10.0 mi WSW 19.6 mph 24.2 mph N/A   Clear
3:16 AM 3.2 °F -19.0 °F -4.0 °F 72% 30.30 in 10.0 mi WSW 23.0 mph - N/A   Clear
3:36 AM 5.0 °F -17.5 °F -0.4 °F 78% 30.30 in 3.0 mi WSW 25.3 mph 33.4 mph N/A   Clear
3:56 AM 6.8 °F -15.5 °F 1.4 °F 79% 30.32 in 5.0 mi WSW 26.5 mph 29.9 mph N/A   Clear
4:16 AM 6.8 °F -14.3 °F 1.4 °F 79% 30.33 in 5.0 mi SW 23.0 mph - N/A   Clear
4:36 AM 5.0 °F -14.7 °F -0.4 °F 78% 30.34 in 10.0 mi SW 18.4 mph - N/A   Clear
4:56 AM 6.8 °F -13.4 °F 1.4 °F 79% 30.33 in 10.0 mi SW 20.7 mph - N/A   Clear
5:16 AM 6.8 °F -12.4 °F -0.4 °F 72% 30.33 in 10.0 mi WSW 18.4 mph - N/A   Clear
5:36 AM 6.8 °F -12.9 °F 1.4 °F 79% 30.34 in 10.0 mi WSW 19.6 mph - N/A   Clear
5:56 AM 6.8 °F -13.4 °F 1.4 °F 79% 30.34 in 10.0 mi WSW 20.7 mph - N/A   Clear
6:16 AM 8.6 °F -11.4 °F 3.2 °F 79% 30.34 in 10.0 mi WSW 21.9 mph - N/A   Clear
6:36 AM 8.6 °F -11.9 °F 3.2 °F 79% 30.35 in 10.0 mi SW 23.0 mph - N/A   Clear
6:56 AM 6.8 °F -10.7 °F 1.4 °F 79% 30.36 in 10.0 mi SW 15.0 mph - N/A   Clear
7:16 AM 8.6 °F -7.7 °F 1.4 °F 73% 30.36 in 10.0 mi SW 13.8 mph - N/A   Clear
7:36 AM 8.6 °F -8.3 °F 1.4 °F 73% 30.36 in 10.0 mi SW 15.0 mph - N/A   Clear
7:56 AM 8.6 °F -8.9 °F 1.4 °F 73% 30.36 in 10.0 mi SW 16.1 mph - N/A   Clear
8:16 AM 8.6 °F -8.3 °F 3.2 °F 79% 30.37 in 10.0 mi SW 15.0 mph - N/A   Clear
8:36 AM 8.6 °F -10.5 °F -0.4 °F 67% 30.37 in 10.0 mi SSW 19.6 mph - N/A   Clear
8:56 AM 8.6 °F -10.5 °F 1.4 °F 73% 30.37 in 10.0 mi SSW 19.6 mph - N/A   Clear
9:16 AM 8.6 °F -12.3 °F 1.4 °F 73% 30.37 in 10.0 mi SSW 24.2 mph - N/A   Clear
9:36 AM 10.4 °F -8.2 °F 1.4 °F 67% 30.37 in 10.0 mi SSW 19.6 mph - N/A   Clear
9:56 AM 10.4 °F -8.6 °F 5.0 °F 79% 30.37 in 10.0 mi SSW 20.7 mph - N/A   Clear
10:16 AM 10.4 °F -8.6 °F 5.0 °F 79% 30.38 in 10.0 mi SSW 20.7 mph - N/A   Clear
10:36 AM 10.4 °F -9.9 °F 6.8 °F 85% 30.38 in 10.0 mi SSW 24.2 mph - N/A   Clear
10:56 AM 10.4 °F -9.5 °F 6.8 °F 85% 30.39 in 10.0 mi SSW 23.0 mph - N/A   Clear
11:16 AM 12.2 °F -6.7 °F 6.8 °F 79% 30.39 in 10.0 mi SSW 21.9 mph - N/A   Clear
11:36 AM 12.2 °F -5.3 °F 5.0 °F 73% 30.38 in 10.0 mi SSW 18.4 mph - N/A   Clear
11:56 AM 12.2 °F -6.3 °F 3.2 °F 67% 30.39 in 10.0 mi SSW 20.7 mph - N/A   Clear
12:16 PM 10.4 °F -9.5 °F 5.0 °F 79% 30.39 in 10.0 mi SSW 23.0 mph - N/A   Clear
12:36 PM 12.2 °F -6.7 °F 8.6 °F 85% 30.39 in 9.0 mi SSW 21.9 mph - N/A   Clear
12:56 PM 12.2 °F -6.3 °F 6.8 °F 79% 30.39 in 9.0 mi SSW 20.7 mph - N/A   Clear
1:16 PM 12.2 °F -7.5 °F 6.8 °F 79% 30.39 in 7.0 mi SSW 24.2 mph 28.8 mph N/A   Clear
1:36 PM 12.2 °F -8.2 °F 6.8 °F 79% 30.39 in 5.0 mi SSW 26.5 mph - N/A   Clear
1:56 PM 14.0 °F -5.5 °F 6.8 °F 73% 30.39 in 5.0 mi SSW 25.3 mph - N/A   Clear
2:16 PM 12.2 °F -7.5 °F 8.6 °F 85% 30.39 in 5.0 mi SSW 24.2 mph - N/A   Clear
2:36 PM 14.0 °F -6.2 °F 8.6 °F 79% 30.40 in 2.5 mi SSW 27.6 mph 33.4 mph N/A   Clear
2:56 PM 14.0 °F -5.8 °F 8.6 °F 79% 30.39 in 3.0 mi SSW 26.5 mph - N/A   Clear
3:16 PM 14.0 °F -5.8 °F 8.6 °F 79% 30.39 in 3.0 mi SSW 26.5 mph - N/A   Clear
3:36 PM 14.0 °F -5.5 °F 8.6 °F 79% 30.40 in 4.0 mi SSW 25.3 mph - N/A   Clear
3:56 PM 14.0 °F -5.8 °F 10.4 °F 86% 30.40 in 4.0 mi SSW 26.5 mph - N/A   Clear
4:16 PM 15.8 °F -3.7 °F 8.6 °F 73% 30.40 in 3.0 mi SSW 27.6 mph - N/A   Clear
4:36 PM 15.8 °F -2.7 °F 10.4 °F 79% 30.40 in 4.0 mi SSW 24.2 mph - N/A   Clear
4:56 PM 15.8 °F -2.7 °F 8.6 °F 73% 30.40 in 8.0 mi SSW 24.2 mph - N/A   Clear
5:16 PM 15.8 °F -3.1 °F 8.6 °F 73% 30.39 in 5.0 mi SSW 25.3 mph - N/A   Clear
5:36 PM 17.6 °F 0.9 °F 10.4 °F 73% 30.39 in 5.0 mi South 20.7 mph - N/A   Clear
5:56 PM 15.8 °F -2.7 °F 8.6 °F 73% 30.39 in 7.0 mi South 24.2 mph - N/A   Clear
6:16 PM 17.6 °F 0.5 °F 8.6 °F 68% 30.40 in 7.0 mi South 21.9 mph 29.9 mph N/A   Clear
6:36 PM 15.8 °F -3.1 °F 8.6 °F 73% 30.39 in 3.0 mi South 25.3 mph 33.4 mph N/A   Clear
6:56 PM 15.8 °F -3.1 °F 8.6 °F 73% 30.39 in 3.0 mi South 25.3 mph 31.1 mph N/A   Clear
7:16 PM 15.8 °F -3.4 °F 8.6 °F 73% 30.40 in 4.0 mi South 26.5 mph 31.1 mph N/A   Clear
7:36 PM 17.6 °F -0.3 °F 6.8 °F 63% 30.40 in 4.0 mi South 24.2 mph 32.2 mph N/A   Clear
7:56 PM 17.6 °F -1.3 °F 6.8 °F 63% 30.39 in 5.0 mi South 27.6 mph 31.1 mph N/A   Clear
8:16 PM 17.6 °F -1.3 °F 6.8 °F 63% 30.39 in 2.5 mi South 27.6 mph - N/A   Partly Cloudy
8:36 PM 17.6 °F -1.0 °F 6.8 °F 63% 30.38 in 3.0 mi South 26.5 mph 35.7 mph N/A   Clear
8:56 PM 17.6 °F -1.6 °F 8.6 °F 68% 30.38 in 1.8 mi South 28.8 mph 38.0 mph N/A   Clear
9:16 PM 15.8 °F -4.4 °F 10.4 °F 79% 30.38 in 1.8 mi South 29.9 mph 36.8 mph N/A   Clear
9:36 PM 17.6 °F -1.6 °F 10.4 °F 73% 30.38 in 2.0 mi South 28.8 mph 36.8 mph N/A   Clear
9:56 PM 15.8 °F -3.4 °F 10.4 °F 79% 30.37 in 2.5 mi South 26.5 mph 40.3 mph N/A   Clear
10:16 PM 17.6 °F -1.6 °F 10.4 °F 73% 30.36 in 3.0 mi South 28.8 mph 34.5 mph N/A   Clear
10:36 PM 17.6 °F -0.6 °F 10.4 °F 73% 30.36 in 2.5 mi South 25.3 mph 38.0 mph N/A   Clear
10:56 PM 17.6 °F -1.3 °F 8.6 °F 68% 30.36 in 4.0 mi South 27.6 mph 32.2 mph N/A   Clear
11:16 PM 17.6 °F -1.6 °F 8.6 °F 68% 30.34 in 2.5 mi South 28.8 mph 33.4 mph N/A   Partly Cloudy
11:36 PM 17.6 °F -1.6 °F 8.6 °F 68% 30.34 in 1.2 mi South 28.8 mph 38.0 mph N/A   Mostly Cloudy
11:56 PM 17.6 °F -1.9 °F 10.4 °F 73% 30.34 in 0.8 mi South 29.9 mph 40.3 mph N/A   Unknown